This demonstration page uses our WeatherBlox Daily Observations layout. Learn more.

Left ArrowRight Arrow

38.83388, -104.82136

Hourly Observations for June 30, 2022

Temp ( °F °C ) Dew Point ( °F °C ) Humidity (%) Winds ( mph kmh ) Pressure ( in mb ) Visibility ( mi km ) Precip ( " mm )
12:54 am 00:54 Mostly Cloudy 68 20 50 10 53 53 WNW 15 24 29.93 1014 10 16 0.00 0.00
1:54 am 01:54 Mostly Cloudy 69 20.6 48 8.9 47 47 NW 20 31 29.92 1013 10 16 0.00 0.00
2:54 am 02:54 Mostly Cloudy 70 21.1 47 8.3 44 44 NW 10 17 29.91 1013 10 16 0.00 0.00
3:54 am 03:54 Mostly Cloudy 70 21.1 46 7.8 42 42 NW 5 7 29.91 1013 10 16 0.00 0.00
4:54 am 04:54 Mostly Cloudy 67 19.4 47 8.3 49 49 Calm 29.92 1013 10 16 0.00 0.00
5:54 am 05:54 Mostly Cloudy 64 17.8 49 9.4 58 58 W 6 9 29.94 1014 10 16 0.00 0.00
6:54 am 06:54 Mostly Cloudy 66 18.9 51 10.6 59 59 WNW 5 7 29.93 1013 10 16 0.00 0.00
7:54 am 07:54 Mostly Cloudy 73 22.8 48 8.9 41 41 Calm 29.93 1013 10 16 0.00 0.00
8:54 am 08:54 Mostly Cloudy 76 24.4 48 8.9 37 37 Calm 29.91 1013 10 16 0.00 0.00
9:54 am 09:54 Mostly Cloudy 84 28.9 47 8.3 27 27 VRB 3 6 29.88 1012 10 16 0.00 0.00
10:54 am 10:54 Mostly Cloudy 86 30 42 5.6 21 21 N 5 7 29.88 1012 10 16 0.00 0.00
11:54 am 11:54 Mostly Cloudy 89 31.7 44 6.7 21 21 N 14 22 29.90 1012 10 16 0.00 0.00
12:54 pm 12:54 Mostly Cloudy with Light Rain 79 26.1 49 9.4 35 35 NE 21 33 29.94 1014 10 16 0.00 0.00
1:54 pm 13:54 Mostly Cloudy 80 26.7 46 7.8 30 30 E 8 13 29.92 1013 10 16 0.00 0.00
2:54 pm 14:54 Mostly Cloudy with Light Rain 76 24.4 52 11.1 43 43 NNE 23 37 29.93 1014 9 14 0.00 0.00
3:24 pm 15:24 Mostly Cloudy with Nearby Thunderstorms 75 24 50 10 41 41 N 16 26 29.76 1008 10 16 0.00 0.00
3:50 pm 15:50 Windy with Storms Likely 72 22 54 12 53 53 NW 20 31 29.84 1010 10 16 0.00 0.00
3:54 pm 15:54 Windy with Storms Likely 68 20 55 12.8 63 63 NNW 22 35 30.03 1017 10 16 0.00 0.00
4:14 pm 16:14 Mostly Cloudy with Light Rain 64 17.8 60 15.6 87 87 NNW 22 35 29.93 1013 10 16 0.05 1.27
4:54 pm 16:54 Mostly Cloudy with Light Rain 66 18.9 58 14.4 75 75 NNW 26 43 30.04 1017 10 16 0.05 1.27
5:54 pm 17:54 Mostly Cloudy with Light Rain 64 17.8 54 12.2 70 70 NNW 16 26 30.05 1018 10 16 0.02 0.51
6:54 pm 18:54 Mostly Cloudy with Light Rain 64 17.8 54 12.2 70 70 NNW 10 17 30.07 1018 10 16 0.00 0.00
7:54 pm 19:54 Mostly Cloudy 65 18.3 53 11.7 66 66 N 9 15 30.02 1017 10 16 0.00 0.00
8:54 pm 20:54 Mostly Cloudy with Light Rain 63 17.2 55 12.8 76 76 W 8 13 30.03 1017 10 16 0.00 0.00
9:54 pm 21:54 Cloudy with Light Rain 64 17.8 55 12.8 73 73 ENE 6 9 29.99 1016 10 16 0.00 0.00
10:54 pm 22:54 Cloudy with Light Rain 65 18.3 55 12.8 70 70 Calm 29.99 1016 10 16 0.00 0.00
11:54 pm 23:54 Cloudy with Light Rain 63 17.2 55 12.8 76 76 N 12 19 30.01 1016 10 16 0.00 0.00

Powered by AerisWeather